Dubuque, IA

9:34 AM CDT on October 20, 2019 (GMT -0500)
Dubuque Regional

Weather History for KDBQ - August, 2019

Change the Weather History Date:

Sunday, August 25, 2019

  Actual Average Record
Temperature  
Mean Temperature 64 °F 69 °F  
Max Temperature 70 °F 79 °F 95 °F (1948)
Min Temperature 57 °F 59 °F 42 °F (1958)
Degree Days  
Heating Degree Days 2 1  
Month to date heating degree days 3 10  
Since 1 June heating degree days 32 58  
Since 1 July heating degree days 3 18  
Cooling Degree Days 0 5  
Month to date cooling degree days 116 150  
Year to date cooling degree days 569 550  
Since 1 June cooling degree days 543 513  
Growing Degree Days 14 (Base 50)    
Moisture  
Dew Point 57 °F    
Average Humidity 78    
Maximum Humidity 87    
Minimum Humidity 65    
Precipitation  
Precipitation 0.01 in 0.14 in 1.42 in (1880)
Month to date precipitation 4.89 3.59  
Year to date precipitation 31.00 25.17  
Snow  
Snow 0.00 in 0.00 in - ()
Month to date snowfall 0.0 0.0  
Since 1 June snowfall 0.0 0.0  
Since 1 July snowfall 0.0 0.0  
Snow Depth 0.00 in    
Sea Level Pressure  
Sea Level Pressure 30.05 in    
Wind  
Wind Speed 8 mph ()    
Max Wind Speed 15 mph    
Max Gust Speed 20 mph    
Visibility 10.0 miles    
Events      
T = Trace of Precipitation, MM = Missing Value Source: Averaged Metar Reports

Daily Weather History Graph

Daily Weather History Graph

Search for Another Location

Airport or City:

Astronomy

Aug. 25, 2019 Rise Set
Actual Time 6:20 AM CDT 7:48 PM CDT
Civil Twilight 5:50 AM CDT 8:18 PM CDT
Nautical Twilight 5:15 AM CDT 8:53 PM CDT
Astronomical Twilight 4:37 AM CDT 9:31 PM CDT
Moon 12:51 AM CDT (8/25) 4:14 PM CDT (8/25)
Length of Visible Light 14h 27m
Length of Day
13h 28m
Waning Crescent, 29% of the Moon is Illuminated
Aug 25
Waning Crescent
Aug 30
New
Sep 5
First Quarter
Sep 13
Full
Sep 21
Last Quarter

Hourly Weather History & Observations

Time (CDT) Temp. Dew Point Humidity Pressure Visibility Wind Dir Wind Speed Gust Speed Precip Events Conditions
12:53 AM 59.0 °F 53.1 °F 81% 30.17 in 10.0 mi ESE 8.1 mph - N/A   Clear
1:53 AM 59.0 °F 53.1 °F 81% 30.15 in 10.0 mi ESE 9.2 mph - N/A   Clear
2:53 AM 57.9 °F 53.1 °F 84% 30.13 in 10.0 mi ESE 8.1 mph - N/A   Clear
3:53 AM 57.9 °F 54.0 °F 87% 30.12 in 10.0 mi East 9.2 mph - N/A   Clear
4:53 AM 57.9 °F 54.0 °F 87% 30.12 in 10.0 mi East 8.1 mph - N/A   Clear
5:53 AM 57.9 °F 54.0 °F 87% 30.12 in 10.0 mi ESE 10.4 mph - N/A   Clear
6:53 AM 57.9 °F 53.1 °F 84% 30.12 in 10.0 mi ESE 6.9 mph - N/A   Clear
7:53 AM 57.9 °F 54.0 °F 87% 30.10 in 10.0 mi ESE 9.2 mph - N/A   Partly Cloudy
8:53 AM 62.1 °F 55.9 °F 80% 30.09 in 10.0 mi ESE 10.4 mph - N/A   Scattered Clouds
9:53 AM 64.0 °F 57.0 °F 78% 30.09 in 10.0 mi ESE 9.2 mph - N/A   Partly Cloudy
10:53 AM 66.9 °F 57.0 °F 70% 30.09 in 10.0 mi ESE 8.1 mph - N/A   Mostly Cloudy
11:53 AM 66.9 °F 57.9 °F 73% 30.08 in 10.0 mi SE 9.2 mph - N/A   Overcast
12:53 PM 68.0 °F 59.0 °F 73% 30.06 in 10.0 mi ESE 9.2 mph - N/A   Overcast
1:53 PM 69.1 °F 57.0 °F 65% 30.04 in 10.0 mi SSE 8.1 mph - N/A   Overcast
2:53 PM 69.1 °F 57.0 °F 65% 30.03 in 10.0 mi SE 8.1 mph - N/A   Overcast
3:53 PM 69.1 °F 61.0 °F 75% 30.01 in 10.0 mi ENE 4.6 mph - 0.01 in   Scattered Clouds
4:53 PM 70.0 °F 57.9 °F 65% 30.00 in 10.0 mi ESE 13.8 mph - N/A   Mostly Cloudy
5:53 PM 68.0 °F 57.9 °F 70% 29.99 in 10.0 mi ESE 8.1 mph - N/A   Overcast
6:53 PM 66.9 °F 59.0 °F 76% 29.98 in 10.0 mi East 6.9 mph - N/A   Overcast
7:53 PM 66.0 °F 60.1 °F 81% 29.96 in 10.0 mi East 4.6 mph - N/A   Overcast
8:53 PM 64.9 °F 57.9 °F 78% 29.96 in 10.0 mi ESE 8.1 mph - N/A   Overcast
9:53 PM 64.0 °F 59.0 °F 84% 29.96 in 10.0 mi SE 8.1 mph - N/A   Overcast
10:53 PM 64.9 °F 57.9 °F 78% 29.95 in 10.0 mi ESE 10.4 mph - N/A   Overcast
11:53 PM 64.0 °F 57.9 °F 80% 29.94 in 10.0 mi ESE 11.5 mph - N/A   Overcast